Mont-Joli, Quebec

8:49 AM EDT on May 24, 2017 (GMT -0400)
Mont-Joli

Weather History for CYYY - September, 2013

Change the Weather History Date:

Tuesday, September 3, 2013

  Actual Average Record
Temperature  
Mean Temperature 54 °F -  
Max Temperature 59 °F 59 °F 80 °F (2002)
Min Temperature 48 °F 43 °F 39 °F (1996)
Degree Days  
Heating Degree Days 12    
Growing Degree Days 4 (Base 50)    
Moisture  
Dew Point 52 °F    
Average Humidity 94    
Maximum Humidity 100    
Minimum Humidity 82    
Precipitation  
Precipitation 0.43 in 0.11 in - ()
Sea Level Pressure  
Sea Level Pressure 29.74 in    
Wind  
Wind Speed 8 mph ()    
Max Wind Speed 22 mph    
Max Gust Speed 28 mph    
Visibility 8.2 miles    
Events Rain    
Averages and records for this station are not official NWS values.
T = Trace of Precipitation, MM = Missing Value Source: Averaged Metar Reports

Daily Weather History Graph

Daily Weather History Graph

Search for Another Location

Airport or City:

Trip Planner

Search our weather history database for the weather conditions in past years. The results will help you decide how hot, cold, wet, or windy it might be!

Date:

Astronomy

Sep. 03, 2013 Rise Set
Actual Time 5:53 AM EDT 7:10 PM EDT
Civil Twilight 5:20 AM EDT 7:42 PM EDT
Nautical Twilight 4:41 AM EDT 8:21 PM EDT
Astronomical Twilight 3:59 AM EDT 9:03 PM EDT
Moon 3:59 AM EDT (9/3) 5:57 PM EDT (9/3)
Length of Visible Light 14h 21m
Length of Day
13h 17m
Waning Crescent, 3% of the Moon is Illuminated
Sep 3
Waning Crescent
Sep 5
New
Sep 12
First Quarter
Sep 19
Full
Sep 26
Last Quarter

Hourly Weather History & Observations

Time (EDT) Temp. Dew Point Humidity Pressure Visibility Wind Dir Wind Speed Gust Speed Precip Events Conditions
12:00 AM 48.2 °F 48.2 °F 100% 29.96 in 4.0 mi NE 16.1 mph 21.9 mph N/A Rain Light Rain Showers
1:00 AM 48.2 °F 48.2 °F 100% 29.93 in 2.0 mi NE 17.3 mph - N/A Rain Rain
2:00 AM 48.2 °F 48.2 °F 100% 29.90 in 2.0 mi ENE 21.9 mph 27.6 mph N/A Rain Light Rain
3:00 AM 48.2 °F 48.2 °F 100% 29.86 in 4.0 mi ENE 17.3 mph - N/A Rain Light Rain
4:00 AM 50.0 °F 50.0 °F 100% 29.83 in 4.0 mi ENE 18.4 mph 24.2 mph N/A Rain Light Rain
5:00 AM 48.2 °F 48.2 °F 100% 29.79 in 2.0 mi ENE 12.7 mph - N/A   Overcast
6:00 AM 48.2 °F 48.2 °F 100% 29.77 in 2.0 mi ENE 11.5 mph - N/A   Overcast
7:00 AM 48.2 °F 48.2 °F 100% 29.76 in 2.0 mi ENE 4.6 mph - N/A   Overcast
7:54 AM 50.0 °F 50.0 °F 100% 29.76 in 3.0 mi ENE 2.3 mph - N/A Rain Light Rain
8:00 AM 50 °F 50 °F 100% 29.77 in 3 mi ENE 1.2 mph - - Rain Light Rain
8:00 AM 50.0 °F 50.0 °F 100% 29.76 in 3.0 mi Calm Calm - N/A Rain Light Rain
8:52 AM 53.6 °F 51.8 °F 94% 29.76 in 6.0 mi Calm Calm - N/A Rain Light Rain
9:00 AM 53.6 °F 53.6 °F 100% 29.76 in 6.0 mi Variable 2.3 mph - N/A Rain Light Rain
9:53 AM 57.2 °F 55.4 °F 94% 29.75 in 6.0 mi Calm Calm - N/A Rain Light Rain
10:00 AM 57.2 °F 55.4 °F 94% 29.74 in 6.0 mi Calm Calm - N/A Rain Light Rain
10:31 AM 57.2 °F 55.4 °F 94% 29.73 in 10.0 mi North 3.5 mph - N/A   Overcast
11:00 AM 57.2 °F 55.4 °F 94% 29.73 in 10.0 mi WNW 4.6 mph - N/A   Overcast
11:37 AM 57.2 °F 55.4 °F 94% 29.73 in 10.0 mi West 4.6 mph - N/A   Overcast
12:00 PM 59.0 °F 55.4 °F 88% 29.72 in 10.0 mi WNW 5.8 mph - N/A   Overcast
1:00 PM 55.4 °F 51.8 °F 88% 29.72 in 10.0 mi West 10.4 mph - N/A   Overcast
2:00 PM 57 °F 54 °F 85% 29.71 in 10 mi West 8.1 mph - -   Partly Cloudy
2:00 PM 57.2 °F 53.6 °F 88% 29.71 in 10.0 mi West 9.2 mph - N/A   Overcast
3:00 PM 57.2 °F 53.6 °F 88% 29.70 in 10.0 mi West 8.1 mph - N/A   Overcast
3:47 PM 57.2 °F 53.6 °F 88% 29.70 in 10.0 mi WNW 8.1 mph - N/A   Overcast
4:00 PM 57.2 °F 53.6 °F 88% 29.70 in 10.0 mi West 9.2 mph - N/A   Overcast
4:42 PM 57.2 °F 51.8 °F 82% 29.70 in 10.0 mi West 3.5 mph - N/A   Mostly Cloudy
5:00 PM 57.2 °F 53.6 °F 88% 29.69 in 10.0 mi NNW 2.3 mph - N/A   Mostly Cloudy
6:00 PM 55.4 °F 53.6 °F 94% 29.67 in 15.0 mi North 4.6 mph - N/A   Scattered Clouds
7:00 PM 55.4 °F 51.8 °F 88% 29.66 in 15.0 mi East 6.9 mph - N/A   Mostly Cloudy
8:00 PM 50 °F 49 °F 95% 29.67 in 15 mi NNE 6.9 mph - -   Mostly Cloudy
8:00 PM 50.0 °F 48.2 °F 94% 29.66 in 15.0 mi NE 5.8 mph - N/A   Mostly Cloudy
9:00 PM 50.0 °F 50.0 °F 100% 29.65 in 15.0 mi Variable 2.3 mph - N/A   Clear
10:00 PM 51.8 °F 51.8 °F 100% 29.64 in 15.0 mi SSE 4.6 mph - N/A   Clear
11:00 PM 51.8 °F 50.0 °F 94% 29.63 in 15.0 mi South 3.5 mph - N/A   Clear